Location: Écuvilly
(49.6505°N, 2.9206°E)
Time: 05:45:17
(UTC+00:00)

Cosmos 1459 Rocket - Pass Details

Date: 17 November 2025
Orbit: 936 x 998 km, 83.0° (Epoch: 10 December)

Event Time Altitude Azimuth Distance (km) Brightness Sun altitude
Rises 16:27:07 0° 191° (S) 3,670 7.6 -4.3°
Reaches altitude 10° 16:29:37 10° 192° (SSW) 2,734 6.9 -4.7°
Maximum altitude 16:35:54 80° 279° (W) 1,014 4.3 -5.6°
Drops below altitude 10° 16:42:19 10° 8° (N) 2,777 6.1 -6.6°
Sets 16:44:52 0° 9° (N) 3,732 6.7 -7.0°
